K4FB Weather Reports


time (UTC)temp
C
wind
direction
speed
KPH
gust
KPH
rain 1hr
cm
rain 24hr
cm
rain mn
cm
humidity
%
barometer
mb
20260509071003 23 292 0.0 3.2 0.00 0.00 0.00 88 1014.2
20260509070504 23 292 0.0 3.2 0.00 0.00 0.00 88 1014.3
20260509070020 23 290 0.0 4.8 0.00 0.00 0.00 88 1014.3
20260509065505 23 290 0.0 6.4 0.00 0.00 0.00 87 1014.3
20260509065007 23 286 1.6 6.4 0.00 0.00 0.00 87 1014.4
20260509064525 23 305 0.0 4.8 0.00 0.00 0.00 87 1014.5
20260509064008 23 305 0.0 4.8 0.00 0.00 0.00 87 1014.5
20260509063506 23 315 0.0 8.0 0.00 0.00 0.00 87 1014.5
20260509063020 23 314 0.0 8.0 0.00 0.00 0.00 87 1014.5
20260509062511 23 305 1.6 6.4 0.00 0.00 0.00 87 1014.5
20260509062009 23 314 1.6 6.4 0.00 0.00 0.00 86 1014.6
20260509061522 24 330 1.6 9.7 0.00 0.00 0.00 86 1014.7
20260509061007 24 323 3.2 9.7 0.00 0.00 0.00 86 1014.5
20260509060508 24 325 3.2 8.0 0.00 0.00 0.00 86 1014.7
20260509060013 24 317 1.6 8.0 0.00 0.00 0.00 86 1014.8
20260509055507 24 306 3.2 8.0 0.00 0.00 0.00 86 1014.9
20260509055007 24 321 1.6 8.0 0.00 0.00 0.00 85 1014.9
20260509054520 24 312 1.6 8.0 0.00 0.00 0.00 85 1014.9
20260509054005 24 298 0.0 6.4 0.00 0.00 0.00 85 1015.0
20260509053507 24 312 0.0 4.8 0.00 0.00 0.00 85 1015.1
20260509053030 24 296 0.0 6.4 0.00 0.00 0.00 85 1015.2
20260509052008 24 279 0.0 6.4 0.00 0.00 0.00 84 1015.2
20260509051525 24 300 1.6 6.4 0.00 0.00 0.00 84 1015.3
20260509051009 24 310 1.6 6.4 0.00 0.00 0.00 83 1015.3
20260509050505 25 295 1.6 6.4 0.00 0.00 0.00 83 1015.4
20260509050035 25 284 0.0 4.8 0.00 0.00 0.00 83 1015.4
20260509045508 25 297 0.0 6.4 0.00 0.00 0.00 82 1015.6
20260509045004 25 288 1.6 6.4 0.00 0.00 0.00 82 1015.6
20260509044520 25 274 1.6 6.4 0.00 0.00 0.00 82 1015.6
20260509044007 25 336 0.0 12.9 0.00 0.00 0.00 81 1015.6
20260509043504 25 311 1.6 12.9 0.00 0.00 0.00 81 1015.8
20260509043020 25 324 1.6 8.0 0.00 0.00 0.00 80 1015.8
20260509042508 25 298 0.0 8.0 0.00 0.00 0.00 80 1015.8
20260509042008 25 311 3.2 14.5 0.00 0.00 0.00 79 1015.9
20260509041526 25 305 3.2 14.5 0.00 0.00 0.00 79 1015.8
20260509041007 25 313 4.8 12.9 0.00 0.00 0.00 78 1015.8
20260509040507 25 292 3.2 9.7 0.00 0.00 0.00 78 1015.9
20260509040028 25 352 4.8 12.9 0.00 0.00 0.00 77 1015.9
20260509035507 25 292 1.6 14.5 0.00 0.00 0.00 77 1015.8
20260509035007 25 333 4.8 14.5 0.00 0.00 0.00 76 1015.9
20260509034527 26 302 8.0 16.1 0.00 0.00 0.00 76 1015.9
20260509034010 26 329 3.2 16.1 0.00 0.00 0.00 75 1015.9
20260509033507 26 350 4.8 14.5 0.00 0.00 0.00 73 1015.8
20260509033018 26 317 4.8 14.5 0.00 0.00 0.00 73 1015.9
20260509032510 26 341 4.8 16.1 0.00 0.00 0.00 71 1015.8
20260509032007 26 14 4.8 16.1 0.00 0.00 0.00 71 1015.8
20260509031526 26 360 6.4 14.5 0.00 0.00 0.00 71 1015.7
20260509031012 26 360 6.4 16.1 0.00 0.00 0.00 71 1015.7
20260509030507 26 333 8.0 17.7 0.00 0.00 0.00 70 1015.8
20260509030034 26 332 9.7 17.7 0.00 0.00 0.00 69 1015.8
20260509025507 26 317 9.7 20.9 0.00 0.00 0.00 69 1015.7
20260509025011 27 318 9.7 20.9 0.00 0.00 0.00 69 1015.6
20260509023509 27 321 3.2 17.7 0.00 0.00 0.00 67 1015.7
20260509023030 27 352 8.0 17.7 0.00 0.00 0.00 67 1015.5
20260509022508 27 352 8.0 17.7 0.00 0.00 0.00 67 1015.3
20260509022009 27 325 6.4 17.7 0.00 0.00 0.00 67 1015.2
20260509021521 27 331 9.7 19.3 0.00 0.00 0.00 67 1015.1
20260509021007 27 312 6.4 19.3 0.00 0.00 0.00 66 1015.1
20260509020514 27 312 4.8 14.5 0.00 0.00 0.00 66 1014.9
20260509020027 27 292 4.8 19.3 0.00 0.00 0.00 65 1014.7
20260509015507 27 322 6.4 19.3 0.00 0.00 0.00 65 1014.6
20260509015009 27 341 3.2 16.1 0.00 0.00 0.00 65 1014.6
20260509014523 27 302 4.8 16.1 0.00 0.00 0.00 64 1014.7
20260509014010 28 307 4.8 14.5 0.00 0.00 0.00 64 1014.6
20260509013509 28 316 4.8 14.5 0.00 0.00 0.00 63 1014.4
20260509012510 28 339 4.8 16.1 0.00 0.00 0.00 60 1014.3
20260509012012 28 319 4.8 17.7 0.00 0.00 0.00 60 1014.3
20260509011522 28 297 3.2 17.7 0.00 0.00 0.00 59 1014.3
20260509011007 28 319 4.8 16.1 0.00 0.00 0.00 58 1014.2
20260509010511 28 297 6.4 16.1 0.00 0.00 0.00 59 1014.2
20260509010022 28 309 3.2 14.5 0.00 0.00 0.00 59 1014.3
20260509005508 28 295 3.2 14.5 0.00 0.00 0.00 59 1014.3
20260509005010 28 279 3.2 17.7 0.00 0.00 0.00 59 1014.2
20260509004535 29 285 6.4 17.7 0.00 0.00 0.00 59 1014.1
20260509004011 29 288 6.4 16.1 0.00 0.00 0.00 60 1014.0
20260509003508 29 300 6.4 20.9 0.00 0.00 0.00 60 1013.9
20260509003029 29 301 9.7 20.9 0.00 0.00 0.00 60 1013.8
20260509002511 29 313 4.8 22.5 0.00 0.00 0.00 60 1013.7
20260509001526 30 299 8.0 22.5 0.00 0.00 0.00 59 1013.4
20260509001009 30 269 6.4 17.7 0.00 0.00 0.00 58 1013.4
20260509000506 30 286 8.0 17.7 0.00 0.00 0.00 58 1013.3
20260509000032 30 213 9.7 20.9 0.00 0.00 0.00 57 1013.2
20260508235507 30 296 9.7 20.9 0.00 0.00 0.00 56 1013.2
20260508235007 30 288 8.0 19.3 0.00 0.00 0.00 56 1013.0
20260508234507 30 278 9.7 19.3 0.00 0.00 0.00 56 1012.9
20260508234004 31 278 9.7 20.9 0.00 0.00 0.00 55 1012.8
20260508233506 31 268 9.7 20.9 0.00 0.00 0.00 55 1012.7
20260508233012 31 290 9.7 19.3 0.00 0.00 0.00 54 1012.7
20260508232504 31 281 11.3 22.5 0.00 0.00 0.00 55 1012.7
20260508232004 31 212 8.0 22.5 0.00 0.00 0.00 54 1012.7
20260508231516 31 266 8.0 17.7 0.00 0.00 0.00 54 1012.6
20260508231008 32 273 6.4 24.1 0.00 0.00 0.00 53 1012.5
20260508230503 32 252 11.3 24.1 0.00 0.00 0.00 53 1012.4
20260508230015 32 211 9.7 24.1 0.00 0.00 0.00 52 1012.2
20260508225507 32 244 9.7 19.3 0.00 0.00 0.00 51 1012.3
20260508225008 32 231 11.3 19.3 0.00 0.00 0.00 50 1012.2
20260508224008 32 238 6.4 14.5 0.00 0.00 0.00 50 1012.2
20260508223509 33 234 9.7 14.5 0.00 0.00 0.00 49 1012.1
20260508223009 33 245 3.2 12.9 0.00 0.00 0.00 50 1012.0
20260508222505 32 192 6.4 12.9 0.00 0.00 0.00 50 1012.0
20260508222005 32 234 6.4 12.9 0.00 0.00 0.00 50 1012.0
20260508221515 33 226 8.0 16.1 0.00 0.00 0.00 49 1012.0
20260508221004 33 193 4.8 16.1 0.00 0.00 0.00 47 1011.9
20260508220504 34 211 6.4 16.1 0.00 0.00 0.00 46 1012.0
20260508220020 35 228 8.0 16.1 0.00 0.00 0.00 43 1012.1
20260508215504 35 226 9.7 16.1 0.00 0.00 0.00 42 1012.0
20260508215007 36 178 8.0 16.1 0.00 0.00 0.00 40 1011.9
20260508214520 37 221 6.4 16.1 0.00 0.00 0.00 40 1011.9
20260508214006 37 276 9.7 19.3 0.00 0.00 0.00 38 1011.9
20260508213023 37 242 4.8 19.3 0.00 0.00 0.00 42 1011.8
20260508212513 38 178 11.3 19.3 0.00 0.00 0.00 38 1011.8
20260508212005 38 194 8.0 17.7 0.00 0.00 0.00 39 1011.9
20260508211511 38 209 8.0 17.7 0.00 0.00 0.00 37 1011.8
20260508211004 38 244 3.2 19.3 0.00 0.00 0.00 39 1011.8
20260508210505 38 217 8.0 19.3 0.00 0.00 0.00 37 1011.9
20260508210013 38 211 8.0 16.1 0.00 0.00 0.00 39 1011.9
20260508205506 38 199 6.4 12.9 0.00 0.00 0.00 38 1011.9
20260508205010 38 197 6.4 12.9 0.00 0.00 0.00 38 1012.0
20260508204510 38 171 6.4 12.9 0.00 0.00 0.00 38 1012.0
20260508204005 38 179 3.2 11.3 0.00 0.00 0.00 37 1012.2
20260508203508 37 176 3.2 11.3 0.00 0.00 0.00 39 1012.3
20260508202005 38 211 4.8 19.3 0.00 0.00 0.00 37 1012.6
20260508201508 38 265 8.0 19.3 0.00 0.00 0.00 39 1012.5
20260508201005 38 352 3.2 14.5 0.00 0.00 0.00 37 1012.5
20260508200504 38 246 6.4 14.5 0.00 0.00 0.00 40 1012.5
20260508200019 37 223 3.2 11.3 0.00 0.00 0.00 39 1012.7
20260508195504 37 180 1.6 11.3 0.00 0.00 0.00 39 1012.7
20260508195005 37 19 1.6 8.0 0.00 0.00 0.00 40 1012.8
20260508194514 36 143 1.6 9.7 0.00 0.00 0.00 41 1012.9
20260508194004 36 51 1.6 12.9 0.00 0.00 0.00 39 1013.0
20260508193505 36 261 3.2 12.9 0.00 0.00 0.00 39 1013.1
20260508193019 36 49 3.2 11.3 0.00 0.00 0.00 44 1013.1
20260508192512 35 82 3.2 11.3 0.00 0.00 0.00 46 1013.2
20260508190505 36 217 6.4 14.5 0.00 0.00 0.00 41 1013.6
20260508190009 36 244 3.2 14.5 0.00 0.00 0.00 45 1013.7
20260508185504 35 17 6.4 14.5 0.00 0.00 0.00 44 1013.8
20260508185004 35 295 1.6 14.5 0.00 0.00 0.00 42 1013.9
20260508184508 35 290 8.0 14.5 0.00 0.00 0.00 44 1014.0
20260508184004 35 329 3.2 12.9 0.00 0.00 0.00 45 1014.2
20260508183506 35 281 4.8 14.5 0.00 0.00 0.00 42 1014.4
20260508183022 35 9 1.6 14.5 0.00 0.00 0.00 43 1014.4
20260508182508 36 296 4.8 14.5 0.00 0.00 0.00 42 1014.5
20260508182005 35 224 3.2 12.9 0.00 0.00 0.00 45 1014.5
20260508181527 35 315 3.2 11.3 0.00 0.00 0.00 45 1014.7
20260508175005 35 254 4.8 14.5 0.00 0.00 0.00 47 1015.1
20260508174513 35 261 4.8 16.1 0.00 0.00 0.00 46 1015.1
20260508174006 35 244 6.4 16.1 0.00 0.00 0.00 47 1015.0
20260508173504 35 300 4.8 14.5 0.00 0.00 0.00 47 1015.0
20260508173032 34 229 4.8 12.9 0.00 0.00 0.00 47 1015.2
20260508172506 34 352 4.8 12.9 0.00 0.00 0.00 45 1015.3
20260508172007 34 240 0.0 11.3 0.00 0.00 0.00 50 1015.3
20260508171526 33 187 3.2 14.5 0.00 0.00 0.00 50 1015.4
20260508171007 33 310 1.6 14.5 0.00 0.00 0.00 48 1015.6
20260508170507 33 286 4.8 14.5 0.00 0.00 0.00 49 1015.6
20260508170027 33 321 6.4 14.5 0.00 0.00 0.00 51 1015.6
20260508165509 33 263 1.6 16.1 0.00 0.00 0.00 56 1015.6
20260508165009 33 281 4.8 16.1 0.00 0.00 0.00 49 1015.8
20260508164523 33 253 4.8 19.3 0.00 0.00 0.00 54 1016.0
20260508164009 32 282 8.0 19.3 0.00 0.00 0.00 51 1016.0
20260508163511 33 271 4.8 20.9 0.00 0.00 0.00 50 1016.0
20260508163022 32 334 6.4 20.9 0.00 0.00 0.00 49 1016.2
20260508162505 32 319 3.2 14.5 0.00 0.00 0.00 51 1016.3
20260508162007 32 315 4.8 14.5 0.00 0.00 0.00 52 1016.4
20260508161527 32 326 3.2 17.7 0.00 0.00 0.00 56 1016.5
20260508161007 32 322 8.0 17.7 0.00 0.00 0.00 54 1016.5
20260508160508 32 232 4.8 12.9 0.00 0.00 0.00 56 1016.5
20260508160028 32 351 3.2 12.9 0.00 0.00 0.00 56 1016.5
20260508155506 31 225 3.2 17.7 0.00 0.00 0.00 57 1016.7
20260508155011 31 285 3.2 17.7 0.00 0.00 0.00 55 1016.7
20260508154526 31 292 3.2 12.9 0.00 0.00 0.00 57 1016.7
20260508154006 31 232 1.6 16.1 0.00 0.00 0.00 59 1016.8
20260508153510 31 10 6.4 16.1 0.00 0.00 0.00 59 1017.0
20260508153037 30 352 4.8 17.7 0.00 0.00 0.00 61 1017.0
20260508152514 30 335 1.6 17.7 0.00 0.00 0.00 58 1017.0
20260508152007 31 242 6.4 16.1 0.00 0.00 0.00 59 1017.0
20260508151524 30 262 6.4 14.5 0.00 0.00 0.00 63 1017.1
20260508151011 30 360 1.6 14.5 0.00 0.00 0.00 64 1017.1
20260508150510 29 36 4.8 14.5 0.00 0.00 0.00 66 1017.1
20260508150021 29 300 4.8 14.5 0.00 0.00 0.00 64 1016.9
20260508145507 29 278 4.8 14.5 0.00 0.00 0.00 66 1017.0
20260508145011 29 69 1.6 16.1 0.00 0.00 0.00 67 1017.1
20260508144521 28 321 9.7 16.1 0.00 0.00 0.00 68 1017.1
20260508144004 28 346 6.4 14.5 0.00 0.00 0.00 68 1017.1
20260508143505 28 306 4.8 12.9 0.00 0.00 0.00 70 1017.2
20260508142505 28 352 3.2 11.3 0.00 0.00 0.00 74 1017.3
20260508142004 27 267 3.2 11.3 0.00 0.00 0.00 75 1017.3
20260508141516 27 360 4.8 12.9 0.00 0.00 0.00 75 1017.3
20260508141005 27 312 1.6 12.9 0.00 0.00 0.00 75 1017.3
20260508140013 27 277 6.4 16.1 0.00 0.00 0.00 76 1017.4
20260508135508 27 315 6.4 17.7 0.00 0.00 0.00 76 1017.4
20260508134503 26 331 4.8 16.1 0.00 0.00 0.00 80 1017.3
20260508134004 26 290 4.8 16.1 0.00 0.00 0.00 80 1017.2
20260508133507 26 294 3.2 16.1 0.00 0.00 0.00 82 1017.2
20260508133010 26 333 6.4 14.5 0.00 0.00 0.00 83 1017.1
20260508132505 26 338 6.4 14.5 0.00 0.00 0.00 82 1017.1
20260508132004 25 332 4.8 14.5 0.00 0.00 0.00 83 1017.2
20260508131516 25 319 3.2 8.0 0.00 0.00 0.00 84 1017.1
20260508131004 25 305 3.2 12.9 0.00 0.00 0.00 87 1017.1
20260508130024 25 306 3.2 12.9 0.00 0.00 0.00 87 1017.2
20260508125503 25 330 3.2 11.3 0.00 0.00 0.00 88 1017.1
20260508125009 25 284 3.2 12.9 0.00 0.00 0.00 88 1017.1
20260508124520 25 263 4.8 12.9 0.00 0.00 0.00 90 1017.0
20260508124009 24 288 1.6 9.7 0.00 0.00 0.00 91 1017.0
20260508123503 23 329 3.2 11.3 0.00 0.00 0.00 93 1017.0
20260508123010 23 271 3.2 11.3 0.00 0.00 0.00 95 1017.0
20260508122503 23 300 1.6 9.7 0.00 0.00 0.00 97 1016.8
20260508122006 22 306 0.0 6.4 0.00 0.00 0.00 97 1016.8
20260508121515 22 308 1.6 6.4 0.00 0.00 0.00 97 1016.8
20260508121003 22 309 1.6 6.4 0.00 0.00 0.00 97 1016.7
20260508120507 22 286 1.6 6.4 0.00 0.00 0.00 97 1016.5
20260508120012 21 269 0.0 4.8 0.00 0.00 0.00 97 1016.4
20260508115509 21 271 0.0 4.8 0.00 0.00 0.00 96 1016.5
20260508114511 20 271 0.0 0.0 0.00 0.00 0.00 96 1016.3
20260508114008 20 271 0.0 0.0 0.00 0.00 0.00 96 1016.2
20260508113507 20 271 0.0 0.0 0.00 0.00 0.00 96 1016.2
20260508113022 19 271 0.0 0.0 0.00 0.00 0.00 96 1016.1
20260508112508 19 271 0.0 0.0 0.00 0.00 0.00 96 1016.1
20260508112007 19 271 0.0 0.0 0.00 0.00 0.00 96 1015.9
20260508111521 18 271 0.0 0.0 0.00 0.00 0.00 95 1015.9
20260508111011 18 271 0.0 0.0 0.00 0.00 0.00 95 1015.8
20260508110509 18 271 0.0 0.0 0.00 0.00 0.00 95 1015.9
20260508110020 18 271 0.0 0.0 0.00 0.00 0.00 95 1015.8
20260508105509 18 271 0.0 0.0 0.00 0.00 0.00 94 1015.7
20260508105009 18 271 0.0 0.0 0.00 0.00 0.00 94 1015.6
20260508104521 18 271 0.0 0.0 0.00 0.00 0.00 95 1015.5
20260508104011 18 271 0.0 0.0 0.00 0.00 0.00 95 1015.4
20260508103507 18 271 0.0 0.0 0.00 0.00 0.00 95 1015.5
20260508103021 18 271 0.0 0.0 0.00 0.00 0.00 94 1015.5
20260508102010 18 271 0.0 0.0 0.00 0.00 0.00 94 1015.3
20260508101524 18 271 0.0 0.0 0.00 0.00 0.00 94 1015.2
20260508101008 18 271 0.0 0.0 0.00 0.00 0.00 94 1015.2
20260508100026 18 271 0.0 0.0 0.00 0.00 0.00 93 1015.1
20260508095510 18 271 0.0 0.0 0.00 0.00 0.00 94 1015.0
20260508095006 18 271 0.0 0.0 0.00 0.00 0.00 94 1015.0
20260508094524 18 271 0.0 0.0 0.00 0.00 0.00 94 1015.0
20260508094008 18 271 0.0 0.0 0.00 0.00 0.00 94 1014.9
20260508093507 18 271 0.0 0.0 0.00 0.00 0.00 94 1014.8
20260508093024 18 271 0.0 0.0 0.00 0.00 0.00 94 1014.9
20260508092508 18 271 0.0 0.0 0.00 0.00 0.00 93 1014.8
20260508092010 18 271 0.0 0.0 0.00 0.00 0.00 93 1014.7
20260508091007 18 271 0.0 0.0 0.00 0.00 0.00 93 1014.7
20260508090508 18 271 0.0 0.0 0.00 0.00 0.00 93 1014.7
20260508090029 18 271 0.0 0.0 0.00 0.00 0.00 93 1014.6
20260508085508 18 271 0.0 0.0 0.00 0.00 0.00 93 1014.6
20260508085007 18 271 0.0 0.0 0.00 0.00 0.00 93 1014.6
20260508084528 18 271 0.0 0.0 0.00 0.00 0.00 93 1014.6
20260508084009 18 271 0.0 0.0 0.00 0.00 0.00 93 1014.6
20260508083504 18 271 0.0 0.0 0.00 0.00 0.00 92 1014.6
20260508083011 18 271 0.0 0.0 0.00 0.00 0.00 93 1014.6
20260508082508 18 271 0.0 0.0 0.00 0.00 0.00 93 1014.5
20260508082012 18 271 0.0 0.0 0.00 0.00 0.00 92 1014.5
20260508081507 18 271 0.0 0.0 0.00 0.00 0.00 92 1014.4
20260508081004 18 271 0.0 0.0 0.00 0.00 0.00 92 1014.5
20260508080510 18 271 0.0 0.0 0.00 0.00 0.00 92 1014.6
20260508080007 19 271 0.0 0.0 0.00 0.00 0.00 92 1014.5
20260508075504 19 271 0.0 0.0 0.00 0.00 0.00 92 1014.5
20260508075007 18 271 0.0 0.0 0.00 0.00 0.00 92 1014.7
20260508074510 19 271 0.0 0.0 0.00 0.00 0.00 92 1014.6
20260508073508 19 271 0.0 0.0 0.00 0.00 0.00 91 1014.8
20260508073016 19 271 0.0 0.0 0.00 0.00 0.00 92 1014.8
20260508072506 19 271 0.0 0.0 0.00 0.00 0.00 91 1014.9
20260508072007 19 271 0.0 0.0 0.00 0.00 0.00 92 1014.9
20260508071525 19 271 0.0 0.0 0.00 0.00 0.00 91 1014.9